Torna al catalogo

STARLINK-36193

AttivoComunicazioniVLEO
NORAD 67099·PAYLOAD·🇺🇸 United States

Lanciato Dec 14, 2025 da Vandenberg Space Force Base

Loading…

Prossimi Passaggi (prossime 24 ore)

TLE

AggiornatoSource: CelesTrak SupGP

Epoca: Sep 15, 2026, 04:06 UTC

1 67099C 25298AA  26258.17131944 -.00037829  00000+0 -31700-2 0  2581
2 67099  69.9993 256.5918 0003967 265.5767  70.9725 14.98349032    11

Traccia STARLINK-36193 in tempo reale con AllMySat

Download on the App Store